"2009-08-13 00:00:00",1146529,4.425,130.1,3.213,0.221,23.68,111.7687,29.44,30.48,10.51,0,111.5,13.04,30.30,92.1
"2009-08-13 00:00:30",1146530,4.592,122.8,6.927,0.326,23.73,111.7682,29.44,30.47,10.59,0,111.5,13.05,30.30,84.8
"2009-08-13 00:01:00",1146531,4.37,125.8,8.69,0.316,23.73,111.7488,29.39,30.45,10.63,0,111.5,13.05,30.25,87.8
"2009-08-13 00:01:30",1146532,5.024,120.2,7.201,0.505,23.79,111.7357,29.36,30.4,10.63,0,111.5,13.05,30.21,82.2
"2009-08-13 00:02:00",1146533,3.893,122.7,7.409,0.954,23.79,111.7343,29.35,30.37,10.58,0,111.5,13.05,30.21,84.7
"2009-08-13 00:02:30",1146534,3.17,113.3,6.543,0.513,23.8,111.7329,29.35,30.34,10.72,0,111.5,13.05,30.20,75.3
"2009-08-13 00:03:00",1146535,3.504,114,6.385,0.17,23.77,111.7305,29.34,30.36,10.51,0,111.5,13.05,30.20,76.0
"2009-08-13 00:03:30",1146536,3.305,126.2,6.025,0.273,23.85,111.7252,29.33,30.33,10.79,0,111.5,13.05,30.18,88.2
"2009-08-13 00:04:00",1146537,4.362,129.1,3.902,0.549,23.84,111.709,29.29,30.34,10.9,0,111.5,13.05,30.14,91.1
"2009-08-13 00:04:30",1146538,3.907,124.5,4.145,0.367,23.87,111.7052,29.28,30.31,10.66,0,111.5,13.05,30.13,86.5
"2009-08-13 00:05:00",1146539,4.147,115.1,3.98,0.422,23.95,111.7042,29.28,30.28,10.65,0,111.5,13.05,30.13,77.1
"2009-08-13 00:05:30",1146540,3.498,120.9,4.223,0.199,23.9,111.7017,29.27,30.28,10.6,0,111.5,13.05,30.12,82.9
"2009-08-13 00:06:00",1146541,2.662,130.5,4.336,0.25,23.88,111.6972,29.26,30.24,10.54,0,111.5,13.05,30.11,92.5
"2009-08-13 00:06:30",1146542,2.516,128,5.033,0.141,23.88,111.6935,29.25,30.25,10.59,0,111.5,13.05,30.10,90.0
"2009-08-13 00:07:00",1146543,2.587,137.5,3.926,0.193,23.86,111.6908,29.24,30.22,10.59,0,111.5,13.05,30.10,99.5
"2009-08-13 00:07:30",1146544,2.693,135.9,4.006,0.13,23.87,111.6906,29.24,30.22,10.55,0,111.5,13.05,30.10,97.9
"2009-08-13 00:08:00",1146545,2.791,129.7,3.601,0.279,23.84,111.6878,29.23,30.23,10.57,0,111.5,13.05,30.09,91.7
"2009-08-13 00:08:30",1146546,3.526,133.6,3.458,0.223,23.8,111.6868,29.23,30.23,10.6,0,111.5,13.05,30.09,95.6
"2009-08-13 00:09:00",1146547,3.489,139.8,2.635,0.255,23.83,111.6872,29.23,30.23,10.65,0,111.5,13.05,30.09,101.8
"2009-08-13 00:09:30",1146548,4.058,146.5,3.719,0.193,23.84,111.6881,29.23,30.22,10.71,0,111.5,13.05,30.09,108.5
"2009-08-13 00:10:00",1146549,3.82,142.8,3.52,0.184,23.8,111.6916,29.24,30.24,10.68,0,111.5,13.05,30.10,104.8
"2009-08-13 00:10:30",1146550,3.739,135.8,2.595,0.117,23.72,111.6913,29.24,30.23,10.64,0,111.5,13.05,30.10,97.8
"2009-08-13 00:11:00",1146551,3.774,126.2,3.698,0.239,23.76,111.6938,29.25,30.23,10.68,0,111.5,13.05,30.10,88.2
"2009-08-13 00:11:30",1146552,3.815,124.1,1.813,0.143,23.7,111.6941,29.25,30.23,10.72,0,111.5,13.05,30.10,86.1
"2009-08-13 00:12:00",1146553,3.271,126.5,4.875,0.153,23.69,111.695,29.25,30.24,10.73,0,111.5,13.05,30.11,88.5
"2009-08-13 00:12:30",1146554,3.702,116,1.686,0.22,23.7,111.6959,29.26,30.24,10.61,0,111.5,13.05,30.11,78.0
"2009-08-13 00:13:00",1146555,3.601,124.5,4.385,0.249,23.64,111.6956,29.25,30.24,10.56,0,111.5,13.05,30.11,86.5
"2009-08-13 00:13:30",1146556,2.966,129,3.785,0.48,23.65,111.6959,29.26,30.24,10.57,0,111.5,13.05,30.11,91.0
"2009-08-13 00:14:00",1146557,3.88,127.8,3.264,0.183,23.64,111.6959,29.26,30.24,10.56,0,111.5,13.05,30.11,89.8
"2009-08-13 00:14:30",1146558,3.546,120.2,3.529,0.315,23.68,111.6959,29.26,30.25,10.76,0,111.5,13.05,30.11,82.2
"2009-08-13 00:15:00",1146559,3.916,121.9,4.957,0.447,23.64,111.6959,29.26,30.24,10.9,0,111.5,13.05,30.11,83.9
"2009-08-13 00:15:30",1146560,4.205,123.6,1.989,0.104,23.63,111.6959,29.26,30.24,11.03,0,111.5,13.05,30.11,85.6
"2009-08-13 00:16:00",1146561,3.944,124.4,1.694,0.227,23.64,111.6959,29.26,30.24,10.87,0,111.5,13.05,30.11,86.4
"2009-08-13 00:16:30",1146562,3.188,140.7,8.77,0.233,23.66,111.6959,29.26,30.24,10.76,0,111.5,13.05,30.11,102.7
"2009-08-13 00:17:00",1146563,3.912,130.9,5.031,0.643,23.63,111.6959,29.26,30.24,10.8,0,111.5,13.05,30.11,92.9
"2009-08-13 00:17:30",1146564,3.868,132.6,1.486,0.31,23.65,111.6959,29.26,30.24,10.93,0,111.5,13.05,30.11,94.6
"2009-08-13 00:18:00",1146565,4.06,128.8,2.023,0.229,23.67,111.6959,29.26,30.23,10.99,0,111.5,13.05,30.11,90.8
"2009-08-13 00:18:30",1146566,3.875,127,4.128,0.267,23.68,111.6959,29.26,30.24,10.99,0,111.5,13.05,30.11,89.0
"2009-08-13 00:19:00",1146567,3.317,127.5,7.807,0.476,23.64,111.6963,29.26,30.24,10.99,0,111.5,13.05,30.11,89.5
"2009-08-13 00:19:30",1146568,3.26,128.2,4.364,0.4,23.66,111.6959,29.26,30.25,11.05,0,111.5,13.05,30.11,90.2
"2009-08-13 00:20:00",1146569,3.917,134.9,2.271,0.245,23.69,111.6959,29.26,30.24,11.09,0,111.5,13.06,30.11,96.9
"2009-08-13 00:20:30",1146570,4.118,131.3,2.581,0.294,23.68,111.6959,29.26,30.25,11,0,111.5,13.06,30.11,93.3
"2009-08-13 00:21:00",1146571,4.116,123.5,4.492,0.431,23.61,111.6959,29.26,30.24,11.13,0,111.5,13.05,30.11,85.5
"2009-08-13 00:21:30",1146572,4.692,120,1.633,0.307,23.58,111.6963,29.26,30.24,11.08,0,111.5,13.06,30.11,82.0
"2009-08-13 00:22:00",1146573,4.444,122.6,2.929,0.278,23.61,111.696,29.26,30.22,11.17,0,111.5,13.06,30.11,84.6
"2009-08-13 00:22:30",1146574,4.743,117.7,3.49,0.327,23.62,111.6948,29.25,30.23,11.16,0,111.5,13.05,30.11,79.7
"2009-08-13 00:23:00",1146575,4.9,120.9,3.395,0.147,23.7,111.693,29.25,30.23,11.24,0,111.5,13.06,30.10,82.9
"2009-08-13 00:23:30",1146576,5.354,120,2.748,0.195,23.75,111.682,29.22,30.22,11.14,0,111.5,13.06,30.07,82.0
"2009-08-13 00:24:00",1146577,5.205,122.9,2.402,0.165,23.8,111.6722,29.19,30.22,11.13,0,111.5,13.06,30.05,84.9
"2009-08-13 00:24:30",1146578,4.734,120.1,2.62,0.098,23.77,111.6651,29.18,30.21,11.17,0,111.5,13.06,30.03,82.1
"2009-08-13 00:25:00",1146579,4.88,120,5.986,0.189,23.76,111.6639,29.17,30.2,11.15,0,111.5,13.06,30.03,82.0
"2009-08-13 00:25:30",1146580,4.807,122.3,1.836,0.165,23.67,111.6655,29.18,30.19,11.09,0,111.5,13.06,30.03,84.3
"2009-08-13 00:26:00",1146581,5.137,114.4,2.773,0.208,23.71,111.6535,29.15,30.18,11.12,0,111.5,13.06,30.00,76.4
"2009-08-13 00:26:30",1146582,5.27,115.3,3.452,0.205,23.69,111.6439,29.12,30.17,11.04,0,111.5,13.06,29.97,77.3
"2009-08-13 00:27:00",1146583,5.505,119.4,1.768,0.115,23.71,111.6387,29.11,30.15,11.11,0,111.5,13.06,29.96,81.4
"2009-08-13 00:27:30",1146584,5.392,121.3,1.556,0.24,23.67,111.6375,29.1,30.13,10.98,0,111.5,13.06,29.96,83.3
"2009-08-13 00:28:00",1146585,5.157,118.4,2.764,0.198,23.67,111.6366,29.1,30.13,10.92,0,111.5,13.06,29.96,80.4
"2009-08-13 00:28:30",1146586,5.093,115.2,2.63,0.14,23.64,111.6215,29.06,30.11,10.96,0,111.5,13.06,29.92,77.2
"2009-08-13 00:29:00",1146587,4.917,119.3,2.585,0.204,23.67,111.6123,29.04,30.09,10.98,0,111.5,13.06,29.89,81.3
"2009-08-13 00:29:30",1146588,4.804,120.8,1.35,0.099,23.71,111.6064,29.02,30.08,11.01,0,111.5,13.06,29.88,82.8
"2009-08-13 00:30:00",1146589,5.123,120.1,3.175,0.219,23.72,111.6044,29.02,30.08,10.99,0,111.5,13.05,29.87,82.1
"2009-08-13 00:30:30",1146590,4.944,119.5,1.101,0.336,23.69,111.6044,29.02,30.06,10.93,0,111.5,13.05,29.87,81.5
"2009-08-13 00:31:00",1146591,4.501,114.8,2.058,0.347,23.71,111.6022,29.01,30.05,10.94,0,111.5,13.05,29.87,76.8
"2009-08-13 00:31:30",1146592,5.583,115.1,2.391,0.255,23.67,111.5994,29.01,30.04,11.11,0,111.5,13.05,29.86,77.1
"2009-08-13 00:32:00",1146593,5.78,117.6,1.828,0.248,23.72,111.5915,28.99,30.02,11.19,0,111.5,13.05,29.84,79.6
"2009-08-13 00:32:30",1146594,5.238,119.9,2.227,0.2,23.7,111.5843,28.97,30.03,11.19,0,111.5,13.05,29.82,81.9
"2009-08-13 00:33:00",1146595,5.22,117.5,2.701,0.169,23.68,111.5792,28.95,30.01,11.16,0,111.5,13.05,29.81,79.5
"2009-08-13 00:33:30",1146596,5.178,117.2,1.105,0.178,23.71,111.5792,28.95,30,11.17,0,111.5,13.05,29.81,79.2
"2009-08-13 00:34:00",1146597,5.036,116.5,2.401,0.173,23.71,111.5761,28.95,29.99,11.04,0,111.5,13.05,29.80,78.5
"2009-08-13 00:34:30",1146598,5.039,114.2,1.441,0.139,23.7,111.5714,28.93,29.99,11.01,0,111.5,13.05,29.79,76.2
"2009-08-13 00:35:00",1146599,5.253,116,2.137,0.113,23.73,111.5708,28.93,29.98,10.94,0,111.5,13.05,29.79,78.0
"2009-08-13 00:35:30",1146600,5.07,114.7,2.28,0.096,23.73,111.5708,28.93,29.97,10.93,0,111.5,13.05,29.79,76.7
"2009-08-13 00:36:00",1146601,5.147,119.2,1.956,0.105,23.71,111.5708,28.93,29.97,10.95,0,111.5,13.06,29.79,81.2
"2009-08-13 00:36:30",1146602,5.325,120.2,1.175,0.097,23.72,111.5666,28.92,29.94,11,0,111.5,13.06,29.78,82.2
"2009-08-13 00:37:00",1146603,5.3,121.7,2.254,0.137,23.74,111.5638,28.92,29.95,10.96,0,111.5,13.06,29.77,83.7
"2009-08-13 00:37:30",1146604,5.257,121.7,3.419,0.174,23.72,111.554,28.89,29.94,11,0,111.5,13.06,29.74,83.7
"2009-08-13 00:38:00",1146605,5.374,118.7,4.658,0.224,23.76,111.547,28.87,29.93,11.01,0,111.5,13.06,29.72,80.7
"2009-08-13 00:38:30",1146606,5.278,117.1,1.783,0.106,23.7,111.5456,28.87,29.92,11.05,0,111.4,13.06,29.72,79.1
"2009-08-13 00:39:00",1146607,5.137,114,2.276,0.177,23.73,111.5442,28.86,29.91,11.16,0,111.4,13.06,29.72,76.0
"2009-08-13 00:39:30",1146608,5.071,113.3,2.059,0.153,23.7,111.54,28.85,29.92,11.15,0,111.4,13.06,29.71,75.3
"2009-08-13 00:40:00",1146609,5.171,117,2.818,0.255,23.75,111.5375,28.85,29.9,11.3,0,111.4,13.06,29.70,79.0
"2009-08-13 00:40:30",1146610,4.726,113.9,2.467,0.147,23.77,111.5378,28.85,29.9,11.44,0,111.4,13.06,29.70,75.9
"2009-08-13 00:41:00",1146611,4.115,114.2,2.415,0.269,23.73,111.5384,28.85,29.9,11.37,0,111.4,13.06,29.70,76.2
"2009-08-13 00:41:30",1146612,4.289,115.1,2.753,0.171,23.65,111.5381,28.85,29.89,11.29,0,111.4,13.06,29.70,77.1
"2009-08-13 00:42:00",1146613,4.117,115.7,1.413,0.149,23.68,111.5381,28.85,29.89,11.25,0,111.4,13.06,29.70,77.7
"2009-08-13 00:42:30",1146614,4.296,116.2,3.266,0.208,23.66,111.5378,28.85,29.88,11.42,0,111.4,13.06,29.70,78.2
"2009-08-13 00:43:00",1146615,3.965,113.4,2.608,0.245,23.68,111.539,28.85,29.87,11.57,0,111.4,13.06,29.70,75.4
"2009-08-13 00:43:30",1146616,4.332,112.3,1.897,0.132,23.69,111.5406,28.86,29.87,11.6,0,111.4,13.06,29.71,74.3
"2009-08-13 00:44:00",1146617,4.124,115.2,3.372,0.259,23.73,111.5403,28.85,29.88,11.48,0,111.4,13.06,29.71,77.2
"2009-08-13 00:44:30",1146618,4.358,115.7,2.244,0.196,23.85,111.5405,28.86,29.87,11.18,0,111.4,13.06,29.71,77.7
"2009-08-13 00:45:00",1146619,4.544,112.8,1.555,0.276,23.91,111.5412,28.86,29.88,11.12,0,111.4,13.06,29.71,74.8
"2009-08-13 00:45:30",1146620,4.457,113.5,1.467,0.149,23.83,111.542,28.86,29.87,11.24,0,111.4,13.06,29.71,75.5
"2009-08-13 00:46:00",1146621,4.545,112.3,3.389,0.124,23.77,111.5435,28.86,29.87,11.17,0,111.4,13.06,29.72,74.3
"2009-08-13 00:46:30",1146622,4.649,121.7,3.687,0.154,23.75,111.5412,28.86,29.85,11.07,0,111.4,13.06,29.71,83.7
"2009-08-13 00:47:00",1146623,4.526,119.9,2.532,0.078,23.8,111.5363,28.84,29.87,10.98,0,111.4,13.06,29.70,81.9
"2009-08-13 00:47:30",1146624,4.396,114.7,2.343,0.093,23.78,111.5374,28.85,29.84,11.19,0,111.4,13.06,29.70,76.7
"2009-08-13 00:48:00",1146625,4.349,114,1.106,0.08,23.85,111.5355,28.84,29.85,11.28,0,111.4,13.06,29.69,76.0
"2009-08-13 00:48:30",1146626,4.515,113.6,2.289,0.155,23.89,111.5297,28.83,29.84,11.29,0,111.4,13.05,29.68,75.6
"2009-08-13 00:49:00",1146627,4.865,115,3.366,0.272,24.01,111.5301,28.83,29.85,11.46,0,111.4,13.05,29.68,77.0
"2009-08-13 00:49:30",1146628,4.436,112.9,3.239,0.244,23.98,111.531,28.83,29.83,11.55,0,111.4,13.05,29.68,74.9
"2009-08-13 00:50:00",1146629,4.149,107,1.077,0.097,23.95,111.5317,28.83,29.84,11.4,0,111.4,13.05,29.68,69.0
"2009-08-13 00:50:30",1146630,4.064,107.7,1.896,0.237,23.94,111.53,28.83,29.82,11.31,0,111.4,13.06,29.68,69.7
"2009-08-13 00:51:00",1146631,4.134,107.8,4.221,0.178,23.9,111.5154,28.79,29.81,11.13,0,111.4,13.05,29.64,69.8
"2009-08-13 00:51:30",1146632,4.22,107.5,3.506,0.277,23.81,111.5067,28.77,29.81,11.2,0,111.4,13.06,29.62,69.5
"2009-08-13 00:52:00",1146633,4.138,112.2,1.481,0.111,23.84,111.5014,28.75,29.81,11.23,0,111.4,13.06,29.61,74.2
"2009-08-13 00:52:30",1146634,4.267,111.8,1.495,0.129,23.88,111.4983,28.75,29.79,11.26,0,111.4,13.06,29.60,73.8
"2009-08-13 00:53:00",1146635,4.205,113.6,3.558,0.228,23.92,111.4983,28.75,29.78,11.27,0,111.4,13.06,29.60,75.6
"2009-08-13 00:53:30",1146636,4.576,111,4.114,0.217,23.95,111.4977,28.74,29.77,11.27,0,111.4,13.06,29.60,73.0
"2009-08-13 00:54:00",1146637,4.276,108.4,2.294,0.143,23.88,111.4952,28.74,29.76,11.26,0,111.4,13.06,29.59,70.4
"2009-08-13 00:54:30",1146638,4.246,113.4,3.006,0.141,23.83,111.4858,28.71,29.76,11.24,0,111.4,13.06,29.57,75.4
"2009-08-13 00:55:00",1146639,4.331,110.9,1.033,0.088,23.82,111.4815,28.7,29.76,11.26,0,111.4,13.06,29.56,72.9
"2009-08-13 00:55:30",1146640,4.428,107.5,2.354,0.142,23.79,111.4757,28.69,29.75,11.25,0,111.4,13.06,29.54,69.5
"2009-08-13 00:56:00",1146641,4.333,109.1,1.756,0.137,23.78,111.4734,28.68,29.72,11.24,0,111.4,13.07,29.53,71.1
"2009-08-13 00:56:30",1146642,4.495,106.6,1.122,0.113,23.75,111.4738,28.68,29.71,11.29,0,111.4,13.07,29.54,68.6
"2009-08-13 00:57:00",1146643,4.531,109,2.073,0.16,23.75,111.4735,28.68,29.7,11.3,0,111.4,13.07,29.53,71.0
"2009-08-13 00:57:30",1146644,4.423,109,2.111,0.089,23.73,111.4718,28.68,29.71,11.31,0,111.4,13.07,29.53,71.0
"2009-08-13 00:58:00",1146645,4.582,109.6,2.295,0.143,23.73,111.4662,28.66,29.7,11.38,0,111.4,13.07,29.52,71.6
"2009-08-13 00:58:30",1146646,4.521,105.5,1.307,0.08,23.72,111.458,28.64,29.68,11.36,0,111.4,13.07,29.49,67.5
"2009-08-13 00:59:00",1146647,4.518,108.1,2.589,0.17,23.71,111.4513,28.63,29.66,11.35,0,111.4,13.07,29.48,70.1
"2009-08-13 00:59:30",1146648,4.435,110.9,2.007,0.145,23.73,111.4499,28.62,29.66,11.39,0,111.4,13.07,29.47,72.9
"2009-08-13 01:00:00",1146649,4.63,112,1.156,0.059,23.74,111.4485,28.62,29.66,11.38,0,111.4,13.07,29.47,74.0
"2009-08-13 01:00:30",1146650,4.638,114.2,2.49,0.12,23.69,111.4485,28.62,29.66,11.51,0,111.4,13.07,29.47,76.2
"2009-08-13 01:01:00",1146651,4.805,114.8,2.801,0.186,23.64,111.448,28.62,29.65,11.57,0,111.4,13.07,29.47,76.8
"2009-08-13 01:01:30",1146652,4.785,113.9,1.126,0.18,23.66,111.4454,28.61,29.65,11.73,0,111.4,13.07,29.46,75.9
"2009-08-13 01:02:00",1146653,4.534,110.5,1.382,0.099,23.61,111.4435,28.61,29.65,11.66,0,111.4,13.07,29.46,72.5
"2009-08-13 01:02:30",1146654,4.564,112,1.459,0.099,23.7,111.4407,28.6,29.65,11.6,0,111.4,13.07,29.45,74.0
"2009-08-13 01:03:00",1146655,4.476,108.7,1.068,0.053,23.67,111.4404,28.6,29.64,11.56,0,111.4,13.07,29.45,70.7
"2009-08-13 01:03:30",1146656,4.86,107.2,1.417,0.197,23.73,111.4404,28.6,29.64,11.53,0,111.4,13.07,29.45,69.2
"2009-08-13 01:04:00",1146657,5.124,105.4,0.98,0.155,23.7,111.4404,28.6,29.63,11.5,0,111.4,13.07,29.45,67.4
"2009-08-13 01:04:30",1146658,5.166,107,1.049,0.076,23.73,111.4407,28.6,29.64,11.52,0,111.4,13.06,29.45,69.0
"2009-08-13 01:05:00",1146659,5.192,106.4,1.348,0.075,23.75,111.442,28.6,29.64,11.5,0,111.4,13.06,29.45,68.4
"2009-08-13 01:05:30",1146660,5.029,107.7,0.793,0.068,23.78,111.4423,28.6,29.63,11.38,0,111.4,13.06,29.45,69.7
"2009-08-13 01:06:00",1146661,5.149,107.9,0.864,0.094,23.75,111.4403,28.6,29.63,11.35,0,111.4,13.06,29.45,69.9
"2009-08-13 01:06:30",1146662,4.957,107.4,1.074,0.099,23.73,111.4292,28.57,29.61,11.42,0,111.4,13.06,29.42,69.4
"2009-08-13 01:07:00",1146663,4.626,109.3,1.291,0.107,23.78,111.424,28.56,29.61,11.38,0,111.4,13.06,29.41,71.3
"2009-08-13 01:07:30",1146664,4.576,111.3,0.984,0.045,23.84,111.4204,28.55,29.59,11.29,0,111.4,13.06,29.40,73.3
"2009-08-13 01:08:00",1146665,4.395,109.4,0.937,0.117,23.82,111.4187,28.54,29.6,11.28,0,111.4,13.06,29.39,71.4
"2009-08-13 01:08:30",1146666,4.382,105.8,2.408,0.092,23.91,111.4157,28.53,29.61,11.26,0,111.4,13.06,29.39,67.8
"2009-08-13 01:09:00",1146667,4.556,106.5,1.756,0.142,23.92,111.4141,28.53,29.59,11.25,0,111.4,13.06,29.38,68.5
"2009-08-13 01:09:30",1146668,4.431,107.3,1.626,0.094,23.96,111.4114,28.52,29.59,11.19,0,111.4,13.06,29.37,69.3
"2009-08-13 01:10:00",1146669,4.283,110.9,2.225,0.139,24.03,111.4155,28.53,29.57,11.18,0,111.4,13.07,29.38,72.9
"2009-08-13 01:10:30",1146670,4.214,109,0.884,0.054,23.92,111.419,28.54,29.57,11.18,0,111.4,13.07,29.39,71.0
"2009-08-13 01:11:00",1146671,4.191,106.9,0.861,0.08,23.97,111.4243,28.56,29.57,11.17,0,111.4,13.07,29.41,68.9
"2009-08-13 01:11:30",1146672,4.133,107.3,1.114,0.09,24.03,111.4278,28.57,29.56,11.13,0,111.4,13.07,29.42,69.3
"2009-08-13 01:12:00",1146673,3.899,106.3,1.255,0.103,24.1,111.4253,28.56,29.56,11.13,0,111.4,13.07,29.41,68.3
"2009-08-13 01:12:30",1146674,3.844,102.9,1.515,0.109,24.05,111.4147,28.53,29.55,11.12,0,111.4,13.07,29.38,64.9
"2009-08-13 01:13:00",1146675,3.79,103.7,1.092,0.103,24.03,111.4104,28.52,29.55,11.12,0,111.4,13.07,29.37,65.7
"2009-08-13 01:13:30",1146676,3.879,105.1,1.036,0.062,24.13,111.4065,28.51,29.53,11.14,0,111.4,13.07,29.36,67.1
"2009-08-13 01:14:00",1146677,4.145,105.3,0.97,0.097,24.11,111.402,28.5,29.52,11.16,0,111.4,13.07,29.35,67.3
"2009-08-13 01:14:30",1146678,4.128,105.9,0.773,0.106,24.07,111.4009,28.5,29.51,11.13,0,111.4,13.07,29.35,67.9
"2009-08-13 01:15:00",1146679,3.953,106.6,1.128,0.09,24.03,111.4019,28.5,29.5,11.13,0,111.4,13.07,29.35,68.6
"2009-08-13 01:15:30",1146680,4.038,107.6,0.751,0.138,23.93,111.4007,28.5,29.5,11.12,0,111.4,13.07,29.35,69.6
"2009-08-13 01:16:00",1146681,4.132,108.2,1.394,0.052,23.87,111.399,28.49,29.49,11.21,0,111.4,13.07,29.34,70.2
"2009-08-13 01:16:30",1146682,4.057,108.6,0.972,0.055,23.89,111.3877,28.46,29.49,11.17,0,111.4,13.07,29.31,70.6
"2009-08-13 01:17:00",1146683,3.934,109.3,1.749,0.049,23.93,111.3816,28.45,29.46,11.16,0,111.4,13.07,29.30,71.3
"2009-08-13 01:17:30",1146684,3.876,111.5,0.514,0.054,23.97,111.3815,28.45,29.47,11.15,0,111.4,13.07,29.30,73.5
"2009-08-13 01:18:00",1146685,3.917,109.8,0.651,0.092,23.98,111.3766,28.43,29.46,11.14,0,111.4,13.08,29.28,71.8
"2009-08-13 01:18:30",1146686,4.005,108.7,0.49,0.061,24,111.3766,28.43,29.44,11.14,0,111.4,13.08,29.28,70.7
"2009-08-13 01:19:00",1146687,4.119,108,0.604,0.055,24.01,111.3766,28.43,29.45,11.17,0,111.3,13.08,29.28,70.0
"2009-08-13 01:19:30",1146688,4.219,108.8,0.656,0.041,23.95,111.3744,28.43,29.43,11.15,0,111.3,13.08,29.28,70.8
"2009-08-13 01:20:00",1146689,4.208,109,0.466,0.043,23.96,111.3646,28.4,29.42,11.14,0,111.3,13.08,29.25,71.0
"2009-08-13 01:20:30",1146690,4.173,107.6,0.539,0.041,24.02,111.352,28.37,29.43,11.16,0,111.3,13.08,29.22,69.6
"2009-08-13 01:21:00",1146691,4.215,108.1,0.676,0.038,23.98,111.3505,28.37,29.41,11.18,0,111.3,13.08,29.22,70.1
"2009-08-13 01:21:30",1146692,4.24,109,0.617,0.058,23.97,111.3433,28.35,29.4,11.23,0,111.3,13.08,29.20,71.0
"2009-08-13 01:22:00",1146693,4.254,107.4,0.762,0.038,24.01,111.343,28.35,29.39,11.29,0,111.3,13.08,29.20,69.4
"2009-08-13 01:22:30",1146694,4.268,107,0.713,0.03,23.99,111.3421,28.34,29.39,11.33,0,111.3,13.08,29.20,69.0
"2009-08-13 01:23:00",1146695,4.543,108.6,0.822,0.159,23.94,111.3379,28.33,29.38,11.53,0,111.3,13.07,29.18,70.6
"2009-08-13 01:23:30",1146696,4.507,110,1.057,0.068,23.92,111.3225,28.29,29.35,11.54,0,111.3,13.08,29.14,72.0
"2009-08-13 01:24:00",1146697,4.442,107.9,1.542,0.107,23.88,111.313,28.27,29.34,11.51,0,111.3,13.08,29.12,69.9
"2009-08-13 01:24:30",1146698,4.272,108.2,1.745,0.09,23.87,111.3093,28.26,29.34,11.49,0,111.3,13.08,29.11,70.2
"2009-08-13 01:25:00",1146699,4.535,111.1,0.719,0.073,23.87,111.3096,28.26,29.33,11.49,0,111.3,13.08,29.11,73.1
"2009-08-13 01:25:30",1146700,4.655,109.7,1.31,0.069,23.84,111.3106,28.26,29.31,11.61,0,111.3,13.08,29.11,71.7
"2009-08-13 01:26:00",1146701,4.567,110.3,2.503,0.125,23.85,111.3065,28.25,29.3,11.56,0,111.3,13.08,29.10,72.3
"2009-08-13 01:26:30",1146702,4.684,109.1,1.09,0.053,23.87,111.2959,28.23,29.29,11.55,0,111.3,13.08,29.08,71.1
"2009-08-13 01:27:00",1146703,4.729,110.3,1.402,0.178,23.84,111.2922,28.22,29.29,11.5,0,111.3,13.08,29.07,72.3
"2009-08-13 01:27:30",1146704,4.658,112.9,2.606,0.126,23.82,111.2897,28.21,29.27,11.58,0,111.3,13.08,29.06,74.9
"2009-08-13 01:28:00",1146705,4.763,110.9,2.007,0.19,23.85,111.2891,28.21,29.26,11.55,0,111.3,13.08,29.06,72.9
"2009-08-13 01:28:30",1146706,4.816,112.2,0.744,0.128,23.86,111.296,28.23,29.27,11.51,0,111.3,13.08,29.08,74.2
"2009-08-13 01:29:00",1146707,5.364,109.6,2.267,0.153,23.82,111.2969,28.23,29.26,11.7,0,111.3,13.08,29.08,71.6
"2009-08-13 01:29:30",1146708,5.337,111,1.839,0.175,23.82,111.3009,28.24,29.24,11.83,0,111.3,13.09,29.09,73.0
"2009-08-13 01:30:00",1146709,5.455,108.3,1.774,0.189,23.85,111.3035,28.25,29.24,11.82,0,111.3,13.08,29.10,70.3
"2009-08-13 01:30:30",1146710,5.707,108.9,0.698,0.05,23.89,111.3024,28.24,29.24,11.87,0,111.3,13.09,29.09,70.9
"2009-08-13 01:31:00",1146711,5.6,107.9,1.038,0.139,23.89,111.2981,28.23,29.23,11.83,0,111.3,13.09,29.08,69.9
"2009-08-13 01:31:30",1146712,5.562,109.5,0.927,0.073,23.87,111.288,28.21,29.2,11.85,0,111.3,13.09,29.06,71.5
"2009-08-13 01:32:00",1146713,5.605,109.9,0.71,0.034,23.86,111.2805,28.19,29.22,11.84,0,111.3,13.09,29.04,71.9
"2009-08-13 01:32:30",1146714,5.596,109.6,0.6,0.045,23.86,111.2771,28.18,29.21,11.81,0,111.3,13.09,29.03,71.6
"2009-08-13 01:33:00",1146715,5.535,110.4,0.666,0.057,23.87,111.2712,28.16,29.2,11.81,0,111.3,13.09,29.01,72.4
"2009-08-13 01:33:30",1146716,5.471,110.7,0.773,0.063,23.85,111.2707,28.16,29.18,11.84,0,111.3,13.09,29.01,72.7
"2009-08-13 01:34:00",1146717,5.452,110,0.75,0.056,23.87,111.2713,28.16,29.17,11.83,0,111.3,13.09,29.01,72.0
"2009-08-13 01:34:30",1146718,5.448,110.6,0.755,0.057,23.89,111.2751,28.17,29.16,11.83,0,111.3,13.09,29.02,72.6
"2009-08-13 01:35:00",1146719,5.315,111,0.761,0.074,23.91,111.2747,28.17,29.17,11.77,0,111.3,13.09,29.02,73.0
"2009-08-13 01:35:30",1146720,5.3,111.8,0.682,0.065,23.88,111.2615,28.14,29.15,11.84,0,111.3,13.09,28.99,73.8
"2009-08-13 01:36:00",1146721,5.206,112,1.246,0.096,23.89,111.2528,28.12,29.14,11.85,0,111.3,13.09,28.97,74.0
"2009-08-13 01:36:30",1146722,5.118,112.1,1.298,0.102,23.86,111.2524,28.11,29.14,11.79,0,111.3,13.09,28.96,74.1
"2009-08-13 01:37:00",1146723,5.084,112.2,0.9,0.09,23.9,111.2469,28.1,29.12,11.84,0,111.3,13.09,28.95,74.2
"2009-08-13 01:37:30",1146724,5.073,112,0.529,0.084,23.88,111.2458,28.1,29.12,11.85,0,111.3,13.09,28.95,74.0
"2009-08-13 01:38:00",1146725,5.026,111,1.014,0.107,23.87,111.2458,28.1,29.12,11.86,0,111.3,13.09,28.95,73.0
"2009-08-13 01:38:30",1146726,4.993,109.9,1.288,0.17,23.9,111.2458,28.1,29.11,11.83,0,111.3,13.09,28.95,71.9
"2009-08-13 01:39:00",1146727,4.756,109,1.591,0.116,23.93,111.2458,28.1,29.09,11.78,0,111.3,13.08,28.95,71.0
"2009-08-13 01:39:30",1146728,4.781,111.2,1.194,0.082,23.95,111.2455,28.1,29.08,11.77,0,111.3,13.08,28.95,73.2
"2009-08-13 01:40:00",1146729,4.928,112.4,0.795,0.075,23.96,111.2444,28.09,29.09,11.77,0,111.3,13.08,28.94,74.4
"2009-08-13 01:40:30",1146730,4.812,115.2,2.063,0.075,23.96,111.2365,28.07,29.07,11.74,0,111.3,13.08,28.92,77.2
"2009-08-13 01:41:00",1146731,4.921,113.1,0.822,0.072,23.98,111.2275,28.05,29.06,11.78,0,111.3,13.08,28.90,75.1
"2009-08-13 01:41:30",1146732,5.007,111.9,1.044,0.148,23.96,111.2214,28.03,29.06,11.77,0,111.3,13.08,28.88,73.9
"2009-08-13 01:42:00",1146733,4.954,116,1.916,0.158,23.98,111.2205,28.03,29.07,11.74,0,111.3,13.08,28.88,78.0
"2009-08-13 01:42:30",1146734,4.805,118.5,1.212,0.187,24.02,111.2177,28.02,29.04,11.71,0,111.3,13.08,28.87,80.5
"2009-08-13 01:43:00",1146735,4.749,115.5,1.856,0.218,24.01,111.2132,28.01,29.05,11.68,0,111.3,13.08,28.86,77.5
"2009-08-13 01:43:30",1146736,5.066,114.7,1.9,0.183,23.98,111.2121,28.01,29.04,11.69,0,111.3,13.08,28.86,76.7
"2009-08-13 01:44:00",1146737,4.848,118.1,1.433,0.141,23.99,111.2121,28.01,29.02,11.73,0,111.3,13.09,28.86,80.1
"2009-08-13 01:44:30",1146738,4.995,116.4,0.903,0.082,23.97,111.2121,28.01,29.03,11.72,0,111.3,13.09,28.86,78.4
"2009-08-13 01:45:00",1146739,4.966,115.2,1.894,0.075,24.02,111.2121,28.01,29.03,11.73,0,111.3,13.09,28.86,77.2
"2009-08-13 01:45:30",1146740,5.254,117.2,1.428,0.109,24.03,111.2116,28.01,29.02,11.72,0,111.3,13.09,28.86,79.2
"2009-08-13 01:46:00",1146741,5.323,117.9,1.332,0.118,24,111.2048,27.99,29.02,11.7,0,111.3,13.09,28.84,79.9
"2009-08-13 01:46:30",1146742,5.14,119.5,1.014,0.107,24.04,111.1922,27.96,29,11.68,0,111.3,13.09,28.81,81.5
"2009-08-13 01:47:00",1146743,5.11,118.5,1.244,0.096,24.06,111.1874,27.95,29,11.68,0,111.3,13.09,28.80,80.5
"2009-08-13 01:47:30",1146744,5.323,118.9,0.761,0.064,24.01,111.1838,27.94,28.98,11.66,0,111.3,13.09,28.79,80.9